#timestamp,LO_Frequency,Hit,StdDev 
1597305615.1,286046995.3,N
1597305635.8,286046997.9,N
1597305655.7,286046995.9,N
1597305675.5,286046995.9,N
1597305695.4,286046995.8,N
1597305715.2,286046996.1,N
1597305735.0,286046993.7,Y
1597305735.9,286046993.7,P
1597305755.8,286046997.8,N
1597305775.6,286046996.8,N
1597305795.5,286046997.2,N
1597305815.3,286046997.8,N
1597305835.1,286046997.4,N
1597305855.9,286046997.6,N
1597305875.7,286046995.5,Y
1597305895.5,286047001.1,P
1597305915.4,286046998.5,N
1597305935.2,286046999.5,N
1597305955.1,286046999.2,N
1597305956.0,286046999.2,N
1597305975.8,286046997.1,N
1597305995.6,286046996.5,N
1597306015.5,286046999.6,N
1597306035.3,286046996.9,N
1597306055.1,286046996.6,N
1597306075.9,286046997.0,N
1597306095.7,286046996.6,N
1597306115.6,286046996.6,N
1597306135.4,286046997.3,N
1597306155.2,286046997.1,N
1597306175.1,286046997.2,N
1597306176.0,286046997.2,N
1597306195.8,286046997.9,N
1597306215.6,286046997.3,N
1597306235.5,286046997.6,N
1597306255.3,286046997.9,N
1597306275.2,286046997.6,N
1597306295.9,286046995.2,Y
1597306315.7,286046999.5,P
1597306335.6,286046999.3,N
1597306355.4,286046996.5,P
1597306375.3,286046996.7,N
1597306395.1,286046997.2,N
1597306396.0,286046997.2,N
1597306415.8,286046997.7,N
1597306435.7,286046997.7,N
1597306455.5,286046997.4,N
1597306475.3,286046997.5,N
1597306495.2,286046996.7,Y
1597306515.0,286047001.1,P
1597306515.9,286047001.1,N
1597306535.8,286046998.5,N
1597306555.6,286047000.8,N
1597306575.4,286046998.5,N
1597306595.3,286046998.6,N
1597306615.1,286046998.2,N
1597306635.9,286046998.7,N
1597306655.7,286046998.4,N
1597306675.5,286046998.7,N
1597306695.4,286046998.5,N
1597306715.2,286046998.8,N
1597306735.0,286046998.5,N
1597306736.0,286046998.5,N
1597306755.8,286046998.9,N
1597306775.6,286047001.2,N
1597306795.5,286046998.1,N
1597306815.3,286046998.2,N
1597306835.1,286046998.2,N
1597306855.9,286046998.4,N
1597306875.7,286046998.4,N
1597306895.6,286046998.4,N
1597306915.4,286046998.2,N
1597306935.2,286047001.1,N
1597306955.1,286047001.1,N
1597306956.0,286047001.1,N
1597306975.8,286047000.7,N
1597306995.6,286047001.2,N
1597307015.5,286047000.3,N
1597307035.3,286047002.1,N
1597307055.2,286047002.3,N
1597307075.9,286047000.3,N
1597307095.7,286047002.7,N
1597307115.6,286047000.4,N
1597307135.4,286047000.2,N
1597307155.3,286046998.2,N
1597307175.1,286047000.9,N
1597307176.0,286047000.9,N
1597307195.8,286047002.3,N
1597307215.7,286047002.4,N
1597307235.5,286047002.8,N
1597307255.3,286046999.9,N
1597307275.2,286047000.3,N
1597307295.0,286047000.5,N
1597307295.9,286047000.5,N
1597307315.8,286047000.5,N
1597307335.6,286047000.4,N
1597307355.4,286047001.2,N
1597307375.3,286047000.8,N
1597307395.1,286046998.2,N
1597307415.9,286047000.8,N
1597307435.7,286046998.2,N
1597307455.5,286046998.2,N
1597307475.4,286046998.5,N
1597307495.2,286046999.9,N
1597307515.0,286046999.8,N
1597307515.9,286046999.8,N
1597307535.8,286047000.2,N
1597307555.6,286047002.0,N
1597307575.5,286047002.5,N
1597307595.3,286046999.8,N
1597307615.1,286047002.1,N
1597307635.9,286047002.2,N
1597307655.7,286047002.4,N
1597307675.5,286047002.5,N
1597307695.4,286047002.7,N
1597307715.2,286047002.4,N
1597307735.1,286047002.7,N
1597307736.0,286047002.7,N
1597307755.8,286047001.9,N
1597307775.6,286047000.1,N
1597307795.5,286046999.9,N
1597307815.3,286047000.4,N
1597307835.2,286047000.1,N
1597307855.9,286047002.8,N
1597307875.7,286047000.1,N
1597307895.6,286047000.2,N
1597307915.4,286047000.0,N
1597307935.2,286047000.2,N
1597307955.1,286047000.3,N
1597307956.0,286047000.3,N
1597307975.8,286046999.9,N
1597307995.7,286047000.6,N
1597308015.5,286047000.0,N
1597308035.3,286046999.9,N
1597308055.2,286047002.7,N
1597308075.0,286047000.6,N
1597308075.9,286047000.6,N
1597308095.8,286047000.4,N
1597308115.6,286047002.6,N
1597308135.4,286047002.4,N
1597308155.3,286046999.7,N
1597308175.1,286047002.4,N
1597308195.8,286047000.2,N
1597308215.7,286047000.0,N
1597308235.5,286047000.2,N
1597308255.4,286046999.8,N
1597308275.2,286047000.2,N
1597308295.3,286047000.5,N
1597308315.1,286047000.7,N
1597308335.8,286047000.0,N
1597308355.7,286046998.7,N
1597308375.5,286046998.4,N
1597308395.4,286046999.5,N
1597308415.2,286046998.5,N
1597308435.0,286046998.6,N
1597308435.9,286046998.6,N
1597308455.8,286046998.6,N
1597308475.6,286047000.9,N
1597308495.4,286047000.2,N
1597308515.3,286047000.0,N
1597308535.1,286046998.3,N
1597308555.9,286046998.6,N
1597308575.7,286047001.2,N
1597308595.5,286046999.3,N
1597308615.4,286046999.0,N
1597308635.2,286046996.9,N
1597308655.1,286046996.9,N
1597308656.0,286046996.9,N
1597308675.8,286046996.6,N
1597308695.6,286046999.6,N
1597308715.5,286046997.2,N
1597308735.3,286046999.1,N
1597308755.1,286046996.8,N
1597308775.9,286046997.4,N
1597308795.7,286046997.1,N
1597308815.6,286046996.7,N
1597308835.4,286046998.0,N
1597308855.2,286046997.2,N
1597308875.1,286046997.3,N
1597308876.0,286046997.3,N
1597308895.8,286046997.2,N
1597308915.6,286046997.6,N
1597308935.5,286046997.7,N
1597308955.3,286046997.5,N
1597308975.2,286046997.4,N
1597308995.9,286046997.2,N
1597309015.7,286046997.8,N
1597309035.6,286046997.0,N
1597309055.4,286046996.7,N
1597309075.2,286046997.3,N
1597309095.1,286046997.8,N
1597309096.0,286046997.8,N
1597309115.8,286046996.7,Y
1597309135.7,286046998.3,P
1597309155.5,286046998.4,P
1597309175.3,286046999.1,N
1597309195.2,286046999.3,N
